Rolla, MO

3:48 AM CST on February 21, 2018 (GMT -0600)
Rolla National

Weather History for KVIH - August, 2014

Change the Weather History Date:

Sunday, August 3, 2014

  Actual Average Record
Temperature  
Mean Temperature 75 °F 78 °F  
Max Temperature 87 °F 89 °F 104 °F (1964)
Min Temperature 63 °F 66 °F 56 °F (1950)
Degree Days  
Heating Degree Days 0 0  
Month to date heating degree days 0 0  
Since 1 June heating degree days 4 15  
Since 1 July heating degree days 3 1  
Cooling Degree Days 10 13  
Month to date cooling degree days 27 39  
Year to date cooling degree days 673 763  
Since 1 June cooling degree days 526 656  
Growing Degree Days 26 (Base 50)    
Moisture  
Dew Point 59 °F    
Average Humidity 59    
Maximum Humidity 84    
Minimum Humidity 34    
Precipitation  
Precipitation 0.00 in 0.11 in 1.11 in (1957)
Month to date precipitation 0.00 0.36  
Year to date precipitation 13.04 26.24  
Sea Level Pressure  
Sea Level Pressure 30.10 in    
Wind  
Wind Speed 6 mph (SSE)    
Max Wind Speed 15 mph    
Max Gust Speed 17 mph    
Visibility 10 miles    
Events      
T = Trace of Precipitation, MM = Missing Value Source: NWS Daily Summary

Daily Weather History Graph

Daily Weather History Graph

Search for Another Location

Airport or City:

Trip Planner

Search our weather history database for the weather conditions in past years. The results will help you decide how hot, cold, wet, or windy it might be!

Date:

Astronomy

Aug. 03, 2014 Rise Set
Actual Time 6:11 AM CDT 8:14 PM CDT
Civil Twilight 5:42 AM CDT 8:43 PM CDT
Nautical Twilight 5:06 AM CDT 9:18 PM CDT
Astronomical Twilight 4:28 AM CDT 9:57 PM CDT
Moon 1:25 PM CDT (8/3) No Moon Set
Length of Visible Light 15h 01m
Length of Day
14h 02m
Waxing Crescent, 47% of the Moon is Illuminated
Aug 3
Waxing Crescent
Aug 3
First Quarter
Aug 10
Full
Aug 17
Last Quarter
Aug 25
New

Hourly Weather History & Observations

Time (CDT) Temp. Heat Index Dew Point Humidity Pressure Visibility Wind Dir Wind Speed Gust Speed Precip Events Conditions
12:53 AM 66.9 °F - 59.0 °F 76% 30.11 in 10.0 mi East 4.6 mph - N/A   Clear
1:53 AM 64.9 °F - 59.0 °F 81% 30.11 in 10.0 mi ESE 5.8 mph - N/A   Clear
2:53 AM 64.4 °F - 59.0 °F 83% 30.14 in 10.0 mi SE 5.8 mph - N/A   Clear
3:53 AM 64.0 °F - 57.9 °F 80% 30.10 in 10.0 mi SE 5.8 mph - N/A   Clear
4:53 AM 66.0 °F - 57.9 °F 75% 30.10 in 10.0 mi SE 6.9 mph - N/A   Clear
5:53 AM 64.0 °F - 57.9 °F 80% 30.12 in 10.0 mi SE 8.1 mph - N/A   Clear
6:53 AM 66.0 °F - 57.9 °F 75% 30.14 in 10.0 mi SE 4.6 mph - N/A   Clear
7:53 AM 70.0 °F - 59.0 °F 68% 30.14 in 10.0 mi SE 5.8 mph - N/A   Clear
8:53 AM 73.9 °F - 60.1 °F 62% 30.16 in 10.0 mi South 5.8 mph - N/A   Clear
9:53 AM 79.0 °F - 59.0 °F 50% 30.15 in 10.0 mi South 4.6 mph - N/A   Clear
10:53 AM 82.9 °F 83.2 °F 60.1 °F 46% 30.14 in 10.0 mi Variable 4.6 mph - N/A   Clear
11:53 AM 82.0 °F 82.0 °F 57.9 °F 44% 30.13 in 10.0 mi SSW 4.6 mph - N/A   Scattered Clouds
12:53 PM 86.0 °F 84.9 °F 57.0 °F 37% 30.10 in 10.0 mi SW 4.6 mph - N/A   Mostly Cloudy
1:53 PM 84.9 °F 83.3 °F 54.0 °F 34% 30.09 in 10.0 mi SSW 5.8 mph - N/A   Mostly Cloudy
2:53 PM 86.0 °F 85.4 °F 59.0 °F 40% 30.07 in 10.0 mi NNW 13.8 mph - N/A   Partly Cloudy
3:53 PM 87.1 °F 86.7 °F 60.1 °F 40% 30.06 in 10.0 mi NW 8.1 mph - N/A   Partly Cloudy
4:53 PM 82.9 °F 82.8 °F 59.0 °F 44% 30.04 in 10.0 mi West 6.9 mph - N/A   Scattered Clouds
5:53 PM 84.9 °F 84.2 °F 57.9 °F 40% 30.04 in 10.0 mi Calm Calm - N/A   Partly Cloudy
6:53 PM 82.9 °F 82.8 °F 59.0 °F 44% 30.04 in 10.0 mi North 3.5 mph - N/A   Partly Cloudy
7:53 PM 78.1 °F - 61.0 °F 56% 30.04 in 10.0 mi Calm Calm - N/A   Clear
8:53 PM 75.2 °F - 60.8 °F 61% 30.08 in 10.0 mi SE 4.6 mph - N/A   Scattered Clouds
9:53 PM 73.9 °F - 57.0 °F 55% 30.05 in 10.0 mi SSE 8.1 mph - N/A   Clear
10:53 PM 72.0 °F - 59.0 °F 64% 30.06 in 10.0 mi SSE 6.9 mph - N/A   Clear
11:53 PM 71.6 °F - 60.8 °F 69% 30.10 in 10.0 mi South 9.2 mph - N/A   Clear